Flag for Germany Weather past 2 weeks in Achern, Baden-Württemberg, Germany

Now
52 °F

Passing clouds.


Feels Like: 47 °F
Forecast: 44 / 54 °F
Wind: 13 mph from West

Location: Karlsruhe - Baden Wurttemberg

Current Time: Mar 30, 2015 at 6:57:27 PM

Latest Report: Mar 30, 2015 at 6:20 PM


Visibility: N/A

Pressure: 29.89 "Hg

Humidity: 38%

Dew point: 27 °F

Location of AchernLocation

Historic Weather in Achern — Graph

°F

Achern temperature yesterday

Maximum temperature yesterday: 52 °F (at 4:50 AM)
Minimum temperature yesterday: 50 °F (at 7:20 AM)
Average temperature yesterday: 51 °F

Past Weeks' High & Low Weather Summary

 TemperatureHumidityPressure
High64 °F (Mar 18, 2:50 PM)100% (Mar 18, 7:50 AM)30.27 "Hg (Mar 18, 7:50 AM)
Low30 °F (Mar 24, 5:20 AM)33% (Mar 30, 5:20 PM)29.59 "Hg (Mar 29, 9:20 PM)
Average48 °F66%30.01 "Hg
* Reported Mar 15 4:20 PM — Mar 30 5:50 PM, Achern, Weather by CustomWeather, © 2015

Note: Actual official high and low records may vary slightly from our data, if they occured in-between our weather recording intervals... More about our weather records

Advertising

Achern weather history for previous 24 hours

 ConditionsComfort  
Time TempWeatherWind HumidityBarometerVisibility
5:50 PM
Mon, Mar 30
52 °FPassing clouds.16 mph38%29.89 "HgN/A
5:20 PM54 °FScattered showers. Partly sunny.17 mph33%29.86 "HgN/A
4:50 PM54 °FPassing clouds.16 mph35%29.86 "HgN/A
4:20 PM54 °FScattered showers. Broken clouds.18 mph38%29.86 "HgN/A
3:50 PM52 °FScattered showers. Broken clouds.18 mph44%29.83 "HgN/A
3:20 PM54 °FPassing clouds.16 mph41%29.83 "HgN/A
2:50 PM52 °FScattered clouds.7 mph54%29.83 "HgN/A
2:20 PM50 °FScattered clouds.8 mph62%29.83 "HgN/A
1:50 PM48 °FScattered showers. Scattered clouds.12 mph71%29.80 "HgN/A
1:20 PM52 °FScattered showers. Scattered clouds.17 mph62%29.77 "HgN/A
12:50 PM50 °FScattered showers. Scattered clouds.14 mph62%29.77 "HgN/A
12:20 PM48 °FScattered showers. Partly sunny.12 mph71%29.74 "HgN/A
11:50 AM48 °FSprinkles. Partly sunny.16 mph66%29.74 "Hg5 mi
11:20 AM52 °FPartly sunny.14 mph54%29.71 "HgN/A
10:50 AM52 °FScattered clouds.18 mph58%29.71 "HgN/A
10:20 AM50 °FScattered showers. Partly sunny.14 mph62%29.68 "HgN/A
9:50 AM50 °FScattered showers. Partly sunny.14 mph67%29.68 "HgN/A
9:20 AM48 °FBroken clouds.14 mph71%29.68 "HgN/A
8:50 AM48 °FScattered clouds.12 mph71%29.65 "HgN/A
8:20 AM48 °FScattered clouds.12 mph71%29.65 "HgN/A
7:50 AM48 °FPassing clouds.12 mph76%29.62 "HgN/A
7:20 AM48 °FPassing clouds.15 mph76%29.62 "HgN/A
6:50 AM48 °FLight rain. Partly cloudy.13 mph76%29.59 "HgN/A
6:20 AM48 °FRain. Passing clouds.12 mph82%29.59 "HgN/A
5:50 AM48 °FLight rain. Passing clouds.13 mph82%29.59 "HgN/A
5:20 AM48 °FRain. Passing clouds.14 mph82%29.59 "HgN/A
4:50 AM48 °FRain. Passing clouds.15 mph82%29.59 "HgN/A
4:20 AM48 °FRain. Partly cloudy.13 mph82%29.59 "HgN/A
11:50 PM
Sun, Mar 29
52 °FRain. Passing clouds.16 mph82%29.59 "Hg6 mi
11:20 PM52 °FLight rain. Passing clouds.16 mph77%29.59 "HgN/A
10:50 PM52 °FRain. Passing clouds.21 mph82%29.59 "Hg6 mi
10:20 PM52 °FLight rain. Passing clouds.24 mph82%29.59 "HgN/A
9:50 PM52 °FRain. Passing clouds.24 mph82%29.59 "HgN/A
9:20 PM52 °FRain. Passing clouds.25 mph82%29.59 "HgN/A
8:50 PM52 °FRain. Partly sunny.22 mph82%29.62 "Hg5 mi
8:20 PM52 °FRain. Partly sunny.20 mph82%29.62 "Hg5 mi
7:50 PM52 °FRain. Broken clouds.20 mph82%29.62 "Hg5 mi
7:20 PM52 °FRain. Partly sunny.20 mph82%29.65 "Hg4 mi
6:50 PM52 °FRain. Partly sunny.21 mph82%29.65 "Hg4 mi
6:20 PM52 °FRain. Partly sunny.26 mph77%29.65 "Hg4 mi
Weather by CustomWeather, © 2015

See weather overviewHow to use our weather pages